{"data":{"norad_id":65080,"epoch":"2026-09-20T22:25:50.155392Z","epoch_age_seconds":82623,"freshness":"FRESH","line1":"1 65080U 25167C   26263.93460828  .00011694  00000+0  35658-3 0  9999","line2":"2 65080  53.1521 193.3672 0002220  78.3164 281.8088 15.34409606 64681","mean_motion":15.34409606,"eccentricity":0.000222,"inclination_deg":53.1521,"raan_deg":193.3672,"arg_perigee_deg":78.3164,"mean_anomaly_deg":281.8088,"bstar":0.00035658,"rev_number":6468,"period_min":93.847170557925,"perigee_km":461.15602910466,"apogee_km":464.19334949471,"semimajor_km":6840.8116892997,"source":"CELESTRAK","updated_at":"2026-09-21T09:00:35.521001Z"}}